Regional Weather Roundup
Issued by NWS

Home | Current Version | Previous Version | Text Only | Print | Product List | Glossary Off
Versions: 1 2 3 4 5 6 7 8 9 10 11 12 13 14 15 16 17 18 19 20 21 22 23 24 25 26 27 28 29 30 31 32 33 34 35 36 37 38 39 40 41 42 43 44 45 46 47 48 49 50

702
ASUS44 KMEG 112210
RWRTN
TENNESSEE HOURLY STATE WEATHER ROUNDUP
NATIONAL WEATHER SERVICE MEMPHIS TN
400 PM CST THU FEB 11 2016

TNZ002-004-019-021-049-052-054-088>092-112300-
WEST TENNESSEE

CITY           SKY/WX    TMP DP  RH WIND       PRES   REMARKS
MEMPHIS INTL   PTSUNNY   53  22  29 N10       30.17S
NWS MEMPHIS      N/A     49 N/A N/A MISG        N/A
JACKSON        SUNNY     48  23  37 N12       30.19S
DYERSBURG      SUNNY     43  23  45 NE12      30.24R
UNION CITY     SUNNY     39  25  56 NE9       30.23R WCI  33
PARIS          SUNNY     37  21  52 NE6       30.22S WCI  33
LEXINGTON      SUNNY     45  19  36 E7        30.19R
$$

TNZ008-025-027-028-033-062-065-066-112300-
NORTH MIDDLE TENNESSEE

CITY           SKY/WX    TMP DP  RH WIND       PRES   REMARKS
NASHVILLE      MOSUNNY   43  21  41 NE5       30.23R
CLARKSVILLE    MOSUNNY   38  22  52 N6        30.25R WCI  33
SMYRNA         SUNNY     43  22  43 N8        30.24R
COOKEVILLE     SUNNY     39  21  48 N6        30.20R WCI  35
CROSSVILLE     SUNNY     39  21  48 N7        30.16R WCI  34
$$

TNZ061-075-076-078-094-096-097-112300-
SOUTH MIDDLE TENNESSEE

CITY           SKY/WX    TMP DP  RH WIND       PRES   REMARKS
FAYETTEVILLE   SUNNY     46  25  42 N9        30.17R
TULLAHOMA      SUNNY     41  19  42 NE3       30.19R
WINCHESTER     SUNNY     45  25  45 N8        30.18R
MCMINNVILLE    SUNNY     39  23  52 N7        30.20R WCI  34
COLUMBIA       SUNNY     43  27  52 NE7       30.19R
SHELBYVILLE    SUNNY     45  27  49 N7        30.21R
$$

TNZ017-018-042-046-047-112300-
NORTHEAST TENNESSEE

CITY           SKY/WX    TMP DP  RH WIND       PRES   REMARKS
TRI CITIES     MOSUNNY   35  16  45 NW10      30.17R WCI  27
$$

TNZ012-013-036-069-073-074-112300-
CENTRAL EAST TENNESSEE

CITY           SKY/WX    TMP DP  RH WIND       PRES   REMARKS
KNOXVILLE      MOSUNNY   42  19  39 W6        30.19R
OAK RIDGE      MOSUNNY   43  19  38 CALM      30.20R
GATLINBURG     CLEAR     39  18  41 VRB6      30.18R WCI  35
MORRISTOWN     CLEAR     37  18  44 N6        30.17S WCI  33
$$

TNZ083-085-099-112300-
SOUTHEAST TENNESSEE

CITY           SKY/WX    TMP DP  RH WIND       PRES   REMARKS
CHATTANOOGA    MOSUNNY   47  21  35 VRB5      30.18R
$$

SKY/WX REPORTED AS FAIR MEANS FEW OR NO CLOUDS BELOW
12 THOUSAND FEET.





USA.gov is the U.S. government's official web portal to all federal, state and local government web resources and services.